轨道通信卫星FM118星 (ORBCOMM FM118)

导读

ORBCOMM FM 118是ORBCOMM低轨卫星星座的一员,由ORB于2015年12月22日08:00发射升空。该卫星运行于近地轨道,属于小型低功率通信卫星,工作在VHF/UHF波段,主要面向机器对机器通信与物联网场景,提供全球范围低成本短数据传输服务,可支持资产监测、定位追踪等物联网应用,信号延迟低,适配窄带低速率通信需求。

Basic Information
目录编号:
41183
目录名称:
ORBCOMM FM 118
国际标识:
2015-081E
轨道中心:
EARTH
卫星名称:
轨道通信卫星FM118星
卫星全名:
轨道通信卫星FM118星 (ORBCOMM FM118)
卫星状态:
在轨 (已飞行3916 天)
发射日期:
2015-12-22 UTC
国别 :
(ORB)
星等 :
--
This satellite is enrolled in the Space Conjunction Data Service (SCDS) and the current flight risk assessment level is: No High Risk
Orbit Information
数据来源 国际轨道数据 AOE轨道数据
星历时间 2026-09-11T13:20:20+0800
10小时前
查看轨道信息
2026-09-10T07:00:00+0800
1天前
查看轨道信息
半长轴 7074.645km 7074.655km
偏心率 0.000178 0.000186
轨道倾角 47.005° 47.004°
近地点辐角 63.318° 50.363°
升交点赤经 314.964° 320.946°
平近点角 296.789° 144.423°
近地点 695.248km 695.202km
远地点 697.768km 697.834km
周期 98.700分钟 98.700分钟
每日圈数 14.589683 14.589651
Detailed Information
固有亮度:
8
最大亮度:
6.7
平衡模式:
三轴稳定
覆盖范围:
全球
运营商:
轨道通信公司
运营商所在国:
美国
使用方式:
暂无
Satellite Introduction
轨道通信FM(Orbcomm FM)是一系列低地球轨道通信卫星,由美国卫星通信公司 Orbcomm运营。 截至2015年12月,已有63颗此类卫星绕地球运行。该卫星仍在工作。
2D Orbit Map
3D Orbit Map
Orbit Altitude Analysis Chart
Orbit Inclination Analysis Chart
Orbit Comprehensive Analysis Chart
View Comprehensive Chart
Miss Distance Evolution Trend with All Objects
Collision Probability Evolution Trend with All Objects